Regional Weather Roundup
Issued by NWS Midland/Odessa, TX

Skip options and go directly to product.
Home | Oldest Version | Previous Version | Current Version | All | Graphics & Text | Save Text | Print | Product List | Glossary On

Skip product version selection by date and time.   
962
ASUS44 KMAF 261110
RWRMAF
MIDLAND AREA WEATHER ROUNDUP
NATIONAL WEATHER SERVICE MIDLAND TX
600 AM CDT SUN JUN 26 2016

...IN SOUTHWEST TEXAS AND SOUTHEAST NEW MEXICO...

CITY           SKY/WX    TMP DP  RH WIND       PRES   REMARKS
ALPINE         CLOUDY    67  59  73 CALM      30.20S
ANDREWS        FAIR      71  65  82 SE6       30.12R
ARTESIA        CLEAR     68  68 100 CALM      30.11R
BIG SPRING     CLOUDY    70  64  81 SE8       30.12S
CARLSBAD       CLEAR     71  65  81 CALM      30.08R
DRYDEN           N/A     73  69  87 E12       30.04R
FORT STOCKTON  CLEAR     70  61  73 SE13      30.06R
GUAD PASS      CLEAR     66  56  70 NE17        N/A
HOBBS          CLOUDY    72  63  73 SE10      30.15R
MARFA          CLOUDY   N/A N/A N/A NE7       30.18R
MIDLAND AIRPK  PTCLDY    74  68  80 SE8       30.11R
MIDLAND INTL   CLOUDY    74  67  78 SE16      30.08F
ODESSA         MOCLDY    74  67  78 S12       30.09F
PECOS          CLEAR     72  61  69 E12       30.05R
PRESIDIO       FAIR      76  60  57 N7        30.02S
SEMINOLE       CLOUDY    71  63  74 SE7       30.14R
SNYDER           N/A     72  69  89 SE8       30.12R
WINK           CLEAR     72  63  73 SE16G24   30.06R
$$
...OTHER STATIONS IN TEXAS...

CITY           SKY/WX    TMP DP  RH WIND       PRES   REMARKS
ABILENE        PTCLDY    74  71  91 S9        30.11R
AMARILLO       CLOUDY    66  60  81 N6        30.15S
AUSTIN         CLOUDY    75  75 100 E3        30.09R FOG
BROWNSVILLE    CLEAR     77  75  93 SE7       30.01S
CORPUS CHRISTI CLOUDY    78  76  93 SE5       30.04R
DALLAS FTW     MOCLDY    79  73  82 S7        30.09R
DEL RIO        LGT RAIN  76  75  97 E8        30.01R
EL PASO        PTCLDY    74  51  44 E3        30.06R
HOUSTON INT    PTCLDY    77  75  93 CALM      30.09R
LUBBOCK        LGT RAIN  72  69  90 S9        30.13S
SAN ANGELO     LGT RAIN  71  68  90 SE5       30.09F
SAN ANTONIO    CLOUDY    77  74  90 SE7       30.09S
WACO           PTCLDY    77  74  90 S9        30.10S
WICHITA FALLS  NOT AVBL
$$
...OTHER LOCATIONS IN NEW MEXICO...

CITY           SKY/WX    TMP DP  RH WIND       PRES   REMARKS
ALAMAGORDO     CLEAR     66  54  63 SE8       30.10F
ALBUQUERQUE    CLOUDY    74  49  41 NE10      30.22R
CANNON AFB     MOCLDY    68  59  72 E13       30.19R
CLOVIS         CLOUDY    70  55  60 NE8       30.20R
HOLLOMAN AFB   PTCLDY    69  55  60 S5        30.08R
ROSWELL        CLEAR     71  59  65 CALM      30.11R
RUIDOSO          N/A     59  48  67 SW5       30.34R
SANTA FE       CLEAR     59  49  69 N5        30.29R
TRUTH OR CONSE MOCLDY    71  52  50 NW3       30.13F
TUCUMCARI      CLEAR     65  62  90 N7        30.20R
$$

USA.gov is the U.S. government's official web portal to all federal, state and local government web resources and services.